TELKOM 4 (MERAH PUTIH) (43587 NORAD) Tracking and Keplerian Element Data

This shows tracking and keplerian element data for the satellite.

Feedback or suggestion? Click here.




ElementValue
Catalog43587
NameTELKOM 4 (MERAH PUTIH)
Epoch Orbit108
Epoch Day318.55113069
Epoch Year2018
RAAN302.1406
Inclination0.0147
Eccentricity0.0001159
Argument of Perigee301.1468
Mean Anonmoly116.7291
Mean Motion1.00269875
Decay Rate-3.43E-06
L11 43587U 18064A 18318.55113069 -.00000343 00000-0 00000+0 0 9997
L22 43587 0.0147 302.1406 0001159 301.1468 116.7291 1.00269875 1080

Live tracking and technical data element details for TELKOM 4 (MERAH PUTIH) (NORAD 43587). TELKOM 4 (MERAH PUTIH) can be tracked NOW for your location showing map with azimuth and elevation plus other details from your city location.

Track the satellite on the map from your city or location and see movement details for azimuth, elevation, latitude, longitude, range, height, and movement on the map or in text.







IsCatalogInMostPopularTable: catalog: 43587, numindb: 39
Update: records affected: 1



GetName: 43587 TELKOM 4 (MERAH PUTIH)

Hit Count: updated at: Fri, 16 Nov 2018 03:24:20 GMT